Location: Boulin
(43.2500°N, 0.1333°E)
Time: 17:42:06
(UTC+00:00)

ARIANE 5 R/B - Pass Details

Date: 11 December 2025
Orbit: 746 x 792 km, 98.8° (Epoch: 22 January)

Event Time Altitude Azimuth Distance (km) Brightness Sun altitude
Rises 17:15:53 0° 155° (SSE) 3,202 5.7 -9.2°
Reaches altitude 10° 17:18:10 10° 152° (SSE) 2,288 4.9 -9.6°
Maximum altitude 17:23:08 62° 72° (ENE) 862 2.5 -10.5°
Drops below altitude 10° 17:28:12 10° 352° (N) 2,333 4.9 -11.3°
Sets 17:30:33 0° 350° (N) 3,272 5.7 -11.7°
